• In Hungary
  • List of Countries
  • For 7 days
  • Water Temperature
  • Satellite Maps
  • Weather Map
  • News
  • Weather Widgets
  • user-avatar
    Login

    Hourly Weather Nikitkino

    Today, 25 May, Friday

    Time Temperature Precipitation Wind Pressure Humidity
    00:00 +12°C° 0 mm 3 mps 753 mmHg 71%
    01:00 +11°C° 0 mm 4 mps 754 mmHg 67%
    02:00 +10°C° 0 mm 4 mps 754 mmHg 64%
    03:00 +9°C° 0 mm 3 mps 754 mmHg 65%
    04:00 +8°C° 0 mm 4 mps 754 mmHg 63%
    05:00 +8°C° 0 mm 4 mps 754 mmHg 60%
    06:00 +9°C° 0 mm 5 mps 754 mmHg 58%
    07:00 +9°C° 0 mm 5 mps 755 mmHg 53%
    08:00 +10°C° 0 mm 5 mps 755 mmHg 48%
    09:00 +11°C° 0 mm 6 mps 755 mmHg 43%
    10:00 +13°C° 0 mm 6 mps 755 mmHg 41%
    11:00 +13°C° 0 mm 6 mps 756 mmHg 39%
    12:00 +13°C° 0 mm 6 mps 756 mmHg 38%
    13:00 +13°C° 0 mm 6 mps 756 mmHg 38%
    14:00 +13°C° 0 mm 6 mps 756 mmHg 38%
    15:00 +11°C° 0 mm 6 mps 757 mmHg 39%
    16:00 +12°C° 0 mm 5 mps 757 mmHg 41%
    17:00 +12°C° 0 mm 5 mps 757 mmHg 42%
    18:00 +10°C° 0 mm 5 mps 757 mmHg 44%
    19:00 +10°C° 0 mm 4 mps 758 mmHg 47%
    20:00 +7°C° 0 mm 4 mps 758 mmHg 50%
    21:00 +7°C° 0 mm 3 mps 759 mmHg 54%
    22:00 +5°C° 0 mm 3 mps 759 mmHg 53%
    23:00 +5°C° 0 mm 3 mps 760 mmHg 53%

    Tomorrow, 26 May, Saturday

    Time Temperature Precipitation Wind Pressure Humidity
    00:00 +4°C° 0 mm 4 mps 760 mmHg 53%
    01:00 +3°C° 0 mm 3 mps 761 mmHg 55%
    02:00 +3°C° 0 mm 3 mps 761 mmHg 57%
    03:00 +2°C° 0 mm 3 mps 762 mmHg 59%
    04:00 +3°C° 0 mm 3 mps 762 mmHg 55%
    05:00 +4°C° 0 mm 4 mps 763 mmHg 52%
    06:00 +5°C° 0 mm 4 mps 763 mmHg 49%
    07:00 +6°C° 0 mm 4 mps 763 mmHg 46%
    08:00 +7°C° 0 mm 5 mps 763 mmHg 43%
    09:00 +8°C° 0 mm 5 mps 764 mmHg 40%
    10:00 +10°C° 0 mm 5 mps 764 mmHg 38%
    11:00 +12°C° 0 mm 4 mps 763 mmHg 37%
    12:00 +13°C° 0 mm 4 mps 763 mmHg 35%
    13:00 +14°C° 0 mm 4 mps 763 mmHg 35%
    14:00 +14°C° 0 mm 4 mps 763 mmHg 34%
    15:00 +16°C° 0 mm 3 mps 763 mmHg 34%
    16:00 +16°C° 0 mm 3 mps 762 mmHg 37%
    17:00 +16°C° 0 mm 2 mps 762 mmHg 40%
    18:00 +15°C° 0 mm 2 mps 761 mmHg 43%
    19:00 +14°C° 0 mm 2 mps 761 mmHg 47%
    20:00 +12°C° 0 mm 2 mps 761 mmHg 51%
    21:00 +9°C° 0 mm 2 mps 761 mmHg 55%
    22:00 +8°C° 0 mm 3 mps 761 mmHg 56%
    23:00 +8°C° 0 mm 3 mps 761 mmHg 57%

    Day after tomorrow, 27 May, Sunday

    Time Temperature Precipitation Wind Pressure Humidity
    00:00 +8°C° 0 mm 3 mps 760 mmHg 59%
    01:00 +8°C° 0 mm 3 mps 760 mmHg 60%
    02:00 +7°C° 0 mm 4 mps 760 mmHg 62%
    03:00 +7°C° 0 mm 4 mps 759 mmHg 64%
    04:00 +8°C° 0 mm 5 mps 759 mmHg 63%
    05:00 +10°C° 0 mm 5 mps 758 mmHg 63%
    06:00 +11°C° 0 mm 6 mps 758 mmHg 62%
    07:00 +14°C° 0 mm 6 mps 757 mmHg 60%
    08:00 +16°C° 0 mm 6 mps 756 mmHg 57%
    09:00 +17°C° 0 mm 6 mps 756 mmHg 54%
    10:00 +20°C° 0 mm 7 mps 755 mmHg 50%
    11:00 +21°C° 0 mm 7 mps 754 mmHg 47%
    12:00 +23°C° 0 mm 8 mps 754 mmHg 43%
    13:00 +22°C° 0.3 mm 7 mps 753 mmHg 47%
    14:00 +21°C° 0.3 mm 6 mps 753 mmHg 51%
    15:00 +20°C° 0.3 mm 6 mps 752 mmHg 56%
    16:00 +17°C° 2.3 mm 5 mps 752 mmHg 68%
    17:00 +15°C° 2.3 mm 4 mps 751 mmHg 81%
    18:00 +12°C° 2.3 mm 3 mps 751 mmHg 93%
    19:00 +12°C° 0.9 mm 3 mps 751 mmHg 92%
    20:00 +11°C° 0.9 mm 3 mps 751 mmHg 91%
    21:00 +11°C° 0.9 mm 3 mps 751 mmHg 90%
    22:00 +10°C° 0.1 mm 3 mps 752 mmHg 90%
    23:00 +9°C° 0.1 mm 3 mps 752 mmHg 89%

    28 May, Monday

    Time Temperature Precipitation Wind Pressure Humidity
    00:00 +8°C° 0.1 mm 3 mps 753 mmHg 89%
    01:00 +7°C° 0 mm 3 mps 753 mmHg 88%
    02:00 +6°C° 0 mm 4 mps 754 mmHg 87%
    03:00 +5°C° 0 mm 4 mps 754 mmHg 87%
    04:00 +5°C° 0 mm 4 mps 755 mmHg 82%
    05:00 +6°C° 0 mm 5 mps 755 mmHg 78%
    06:00 +6°C° 0 mm 5 mps 755 mmHg 74%
    07:00 +7°C° 0 mm 5 mps 755 mmHg 65%
    08:00 +8°C° 0 mm 6 mps 755 mmHg 57%
    09:00 +9°C° 0 mm 6 mps 756 mmHg 48%
    10:00 +9°C° 0 mm 7 mps 756 mmHg 48%
    11:00 +9°C° 0 mm 7 mps 756 mmHg 48%
    12:00 +9°C° 0 mm 7 mps 756 mmHg 48%
    13:00 +9°C° 0 mm 7 mps 756 mmHg 47%
    14:00 +10°C° 0 mm 7 mps 756 mmHg 47%
    15:00 +10°C° 0 mm 7 mps 756 mmHg 46%
    16:00 +10°C° 0 mm 6 mps 756 mmHg 47%
    17:00 +10°C° 0 mm 5 mps 756 mmHg 49%
    18:00 +11°C° 0 mm 4 mps 756 mmHg 50%
    19:00 +10°C° 0 mm 4 mps 756 mmHg 54%
    20:00 +9°C° 0 mm 3 mps 756 mmHg 57%
    21:00 +8°C° 0 mm 2 mps 756 mmHg 61%
    22:00 +7°C° 0 mm 2 mps 756 mmHg 62%
    23:00 +7°C° 0 mm 2 mps 756 mmHg 63%

    29 May, Tuesday

    Time Temperature Precipitation Wind Pressure Humidity
    00:00 +5°C° 0 mm 3 mps 755 mmHg 64%
    01:00 +5°C° 0 mm 3 mps 755 mmHg 67%
    02:00 +5°C° 0 mm 3 mps 755 mmHg 69%
    03:00 +5°C° 0 mm 3 mps 755 mmHg 72%
    04:00 +6°C° 0.2 mm 2 mps 754 mmHg 76%
    05:00 +7°C° 0.2 mm 2 mps 754 mmHg 81%
    06:00 +7°C° 0.2 mm 2 mps 754 mmHg 85%
    07:00 +9°C° 0.1 mm 3 mps 754 mmHg 78%
    08:00 +11°C° 0.1 mm 4 mps 753 mmHg 71%
    09:00 +13°C° 0.1 mm 5 mps 753 mmHg 64%
    10:00 +13°C° 0.1 mm 6 mps 753 mmHg 59%
    11:00 +14°C° 0.1 mm 6 mps 753 mmHg 54%
    12:00 +15°C° 0.1 mm 7 mps 752 mmHg 49%
    13:00 +15°C° 0 mm 7 mps 752 mmHg 48%
    14:00 +16°C° 0 mm 6 mps 752 mmHg 46%
    15:00 +16°C° 0 mm 6 mps 752 mmHg 44%
    16:00 +16°C° 0 mm 5 mps 752 mmHg 48%
    17:00 +15°C° 0 mm 4 mps 752 mmHg 52%
    18:00 +16°C° 0 mm 3 mps 752 mmHg 56%
    19:00 +14°C° 0 mm 2 mps 752 mmHg 59%
    20:00 +13°C° 0 mm 2 mps 752 mmHg 63%
    21:00 +12°C° 0 mm 2 mps 752 mmHg 67%
    22:00 +10°C° 0 mm 2 mps 752 mmHg 69%
    23:00 +11°C° 0 mm 1 mps 752 mmHg 70%

    30 May, Wednesday

    Time Temperature Precipitation Wind Pressure Humidity
    00:00 +10°C° 0 mm 1 mps 751 mmHg 72%
    01:00 +10°C° 0 mm 1 mps 751 mmHg 73%
    02:00 +10°C° 0 mm 1 mps 751 mmHg 75%
    03:00 +9°C° 0 mm 1 mps 751 mmHg 77%
    04:00 +10°C° 0 mm 1 mps 750 mmHg 75%
    05:00 +10°C° 0 mm 2 mps 750 mmHg 73%
    06:00 +13°C° 0 mm 2 mps 749 mmHg 71%
    07:00 +14°C° 0 mm 2 mps 749 mmHg 68%
    08:00 +16°C° 0 mm 3 mps 748 mmHg 65%
    09:00 +18°C° 0 mm 4 mps 747 mmHg 63%
    10:00 +19°C° 0.1 mm 5 mps 746 mmHg 62%
    11:00 +20°C° 0.1 mm 6 mps 745 mmHg 60%
    12:00 +21°C° 0.1 mm 6 mps 744 mmHg 59%
    13:00 +22°C° 0.3 mm 6 mps 743 mmHg 56%
    14:00 +23°C° 0.3 mm 6 mps 742 mmHg 53%
    15:00 +23°C° 0.3 mm 6 mps 741 mmHg 49%
    16:00 +23°C° 0.2 mm 6 mps 740 mmHg 53%
    17:00 +22°C° 0.2 mm 6 mps 739 mmHg 56%
    18:00 +21°C° 0.2 mm 7 mps 737 mmHg 59%
    19:00 +17°C° 2.7 mm 7 mps 738 mmHg 69%
    20:00 +15°C° 2.7 mm 7 mps 738 mmHg 80%
    21:00 +11°C° 2.7 mm 7 mps 738 mmHg 91%
    22:00 +9°C° 0.1 mm 7 mps 738 mmHg 88%
    23:00 +7°C° 0.1 mm 6 mps 738 mmHg 86%
    Show more